Regional Weather Roundup
Issued by NWS

Home | Current Version | Previous Version | Graphics & Text | Print | Product List | Glossary Off
Versions: 1 2 3 4 5 6 7 8 9 10 11 12 13 14 15 16 17 18 19 20 21 22 23 24 25 26 27 28 29 30 31 32 33 34 35 36 37 38 39 40 41 42 43 44 45 46 47 48 49 50

993
ASUS43 KDMX 192206
RWRIA

WEATHER ROUNDUP FOR IOWA
NATIONAL WEATHER SERVICE DES MOINES IA
400 PM CST SUN NOV 19 2017

NOTE: "FAIR" INDICATES FEW OR NO CLOUDS BELOW 12,000 FEET WITH NO
SIGNIFICANT WEATHER AND/OR OBSTRUCTIONS TO VISIBILITY.

* - THESE STATIONS ARE NOT NWS STATIONS...THUS NOT UNDER NWS
QUALITY CONTROL.  THEY ALSO DO NOT REPORT WEATHER SUCH
AS PRECIPITATION OR FOG.

IAZ001>003-012>014-020>022-031>034-043>046-192300-
   NORTHWEST IOWA

CITY           SKY/WX    TMP DP  RH WIND       PRES   REMARKS
CARROLL *      CLEAR     48  27  43 SW15      29.99S
CHEROKEE *     CLEAR     49  29  47 S9        29.94F
DENISON *      CLEAR     50  28  43 SW13G18   29.99S
LE MARS *      CLOUDY    54  25  32 SW8G15    29.92F
ORANGE CITY *  CLOUDY    52  27  37 SW10      29.92F
SHELDON *      CLOUDY    48  27  43 S9        29.90F
SIOUX CITY     CLEAR     53  25  33 SW15      29.93F
SPENCER        CLEAR     47  26  44 SW9       29.94F
STORM LAKE *   CLEAR     48  27  43 SW14      29.95F
$$

IAZ055>058-069>071-079>083-090>094-192300-
   SOUTHWEST IOWA

CITY           SKY/WX    TMP DP  RH WIND       PRES   REMARKS
ATLANTIC *     CLEAR     48  30  49 SW15      30.01F
AUDUBON *      CLEAR     46  30  53 SW8       30.01F
CLARINDA *     CLEAR     52  30  43 S12         N/A
COUNCIL BLFS * CLEAR     54  27  35 SW15G22   30.00F
CRESTON *      CLEAR     46  27  46 SW13G20   30.05F
HARLAN  *      CLEAR     50  30  46 SW10G18   30.03S
LAMONI         CLEAR     47  26  44 SW14      30.07F
RED OAK *      CLEAR     52  30  43 S13       30.03F
SHENANDOAH *   CLEAR     54  25  32 SW9       30.04F
$$

IAZ047>049-059>061-072>074-084-192300-
   CENTRAL IOWA

CITY           SKY/WX    TMP DP  RH WIND       PRES   REMARKS
AMES           CLEAR     46  30  53 SW9       30.02F
ANKENY *       CLEAR     46  25  42 S9G15     30.04F
BOONE *        CLEAR     46  28  49 SW9       30.01S
CHARITON *     CLEAR     45  25  45 S10       30.05F
DES MOINES     PTCLDY    48  25  40 SW10      30.04S
GRINNELL*      CLEAR     42  25  51 SW9       30.06F
KNOXVILLE *    CLEAR     46  23  39 SW13      30.04F
MARSHALLTOWN   CLEAR     42  26  53 SW8       30.03F
NEWTON *       CLEAR     45  27  49 SW9       30.04F
PELLA *        CLEAR     46  25  43 SW8       30.07F
PERRY *          N/A     46  26  45 SW8       30.01F
$$

IAZ004>006-015-016-023>025-035-036-192300-
   NORTH CENTRAL IOWA

CITY           SKY/WX    TMP DP  RH WIND       PRES   REMARKS
ALGONA *       CLEAR     46  28  49 SW9G16    29.95F
CLARION *      CLEAR     45  30  57 SW12      29.98F
ESTHERVILLE    CLEAR     45  26  47 SW10      29.93F
FORT DODGE *   CLEAR     47  27  45 SW13      29.98F
MASON CITY     CLEAR     42  26  53 SW9       29.98F
FOREST CITY *    N/A     43  30  61 SW7       29.96F
WEBSTER CITY * CLEAR     46  27  46 SW13      29.97F
IOWA FALLS *     N/A     45  28  51 SW12      30.02S
$$

IAZ007>011-017>019-026>030-037>042-050>054-066-192300-
   NORTHEAST IOWA

CITY           SKY/WX    TMP DP  RH WIND       PRES   REMARKS
CEDAR RAPIDS   CLEAR     39  22  50 SW6       30.06F WCI  35
CHARLES CITY * CLEAR     41  25  52 SW8G14    29.99F
CLINTON *      CLEAR     34  21  59 W9        30.08F WCI  27
DECORAH *      CLEAR     36  21  55 SW9       29.98F WCI  29
DUBUQUE        CLEAR     32  20  61 SW12      30.04F WCI  23
MONTICELLO *   CLEAR     37  21  52 SW8       30.06S WCI  31
OELWEIN *      CLEAR     37  25  60 S7        30.02F WCI  32
WATERLOO       CLEAR     40  23  50 SW9       30.02F WCI  34
$$

IAZ064-065-067-068-078-192300-
   EAST CENTRAL IOWA

CITY           SKY/WX    TMP DP  RH WIND       PRES   REMARKS
DAVENPORT      CLEAR     35  20  54 SW10      30.11F WCI  27
IOWA CITY      CLEAR     40  21  46 S8        30.10F WCI  34
MT. PLEASANT * CLEAR     40  23  51 S8        30.11F WCI  34
MUSCATINE *    CLEAR     39  21  48 SW3       30.12S
QUAD CITIES    CLEAR     36  18  48 SW9       30.10F WCI  29
$$

IAZ062-063-075>077-085>089-095>099-192300-
   SOUTHEAST IOWA

CITY           SKY/WX    TMP DP  RH WIND       PRES   REMARKS
BURLINGTON     CLEAR     38  23  55 S9        30.13S WCI  31
FAIRFIELD *    CLEAR     43  23  45 SW8       30.09F
FORT MADISON * CLEAR     39  21  48 SW7       30.13F WCI  34
KEOKUK *       CLEAR     41  23  48 SW6       30.13F
OSKALOOSA *      N/A     43  27  53 SW8       30.07F
OTTUMWA        CLEAR     44  24  45 SW8       30.08F
WASHINGTON *   CLEAR     41  23  48 SW8       30.11S
$$

ABBREVIATIONS USED IN REMARKS
   TC - TEMPERATURES IN CELSIUS
  WCI - WIND CHILL INDEX
   HX - HEAT INDEX
  VSB - VISIBILITY
$$





USA.gov is the U.S. government's official web portal to all federal, state and local government web resources and services.